Change the Weather History Date:

Sunday, November 17, 2013

  Actual Average Record
Temperature  
Mean Temperature 45 °F 41 °F  
Max Temperature 51 °F 48 °F 64 °F (1976)
Min Temperature 39 °F 34 °F 14 °F (1958)
Degree Days  
Heating Degree Days 20 24  
Month to date heating degree days 377 368  
Since 1 July heating degree days 945 893  
Cooling Degree Days 0 0  
Month to date cooling degree days 0 0  
Year to date cooling degree days 1178 807  
Moisture  
Dew Point 31 °F    
Average Humidity 55    
Maximum Humidity 67    
Minimum Humidity 42    
Precipitation  
Precipitation T in 0.04 in 0.45 in (1950)
Month to date precipitation 0.68 0.69  
Year to date precipitation 8.73 10.85  
Snow  
Snow 0.00 in 0.10 in 1.00 in (1994)
Month to date snowfall T 0.7  
Since 1 July snowfall T 0.7  
Since 1 September snowfall T 0.7  
Snow Depth 0.00 in    
Sea Level Pressure  
Sea Level Pressure 29.91 in    
Wind  
Wind Speed 8 mph (South)    
Max Wind Speed 23 mph    
Max Gust Speed 30 mph    
Visibility 10 miles    
Events Rain    
T = Trace of Precipitation, MM = Missing Value Source: NWS Daily Summary

Daily Weather History Graph

Daily Weather History Graph

Search for Another Location

Airport or City:

Trip Planner

Search our weather history database for the weather conditions in past years. The results will help you decide how hot, cold, wet, or windy it might be!

Date:

Astronomy

Nov. 17, 2013 Rise Set
Actual Time 6:52 AM PST 4:12 PM PST
Civil Twilight 6:19 AM PST 4:45 PM PST
Nautical Twilight 5:43 AM PST 5:22 PM PST
Astronomical Twilight 5:07 AM PST 5:58 PM PST
Moon 4:33 PM PST (11/17) 6:50 AM PST (11/17)
Length of Visible Light 10h 25m
Length of Day
9h 19m
Full, 100% of the Moon is Illuminated
Nov 17
Full
Nov 25
Last Quarter
Dec 2
New
Dec 9
First Quarter
Dec 17
Full

Hourly Weather History & Observations

Time (PST) Temp. Windchill Dew Point Humidity Pressure Visibility Wind Dir Wind Speed Gust Speed Precip Events Conditions
12:56 AM 42.1 °F 38.4 °F 30.9 °F 65% 29.74 in 10.0 mi South 5.8 mph - N/A   Overcast
1:56 AM 42.1 °F 38.4 °F 30.0 °F 62% 29.77 in 10.0 mi SW 5.8 mph - N/A   Overcast
2:56 AM 42.1 °F 37.1 °F 30.0 °F 62% 29.78 in 10.0 mi SSW 8.1 mph - N/A   Overcast
3:56 AM 39.9 °F 33.9 °F 28.9 °F 65% 29.81 in 10.0 mi SSW 9.2 mph - N/A   Mostly Cloudy
4:56 AM 41.0 °F 36.4 °F 28.9 °F 62% 29.83 in 10.0 mi South 6.9 mph - N/A   Overcast
5:56 AM 41.0 °F 35.8 °F 30.9 °F 67% 29.85 in 10.0 mi South 8.1 mph - N/A   Overcast
6:56 AM 42.1 °F 39.2 °F 30.9 °F 65% 29.88 in 10.0 mi South 4.6 mph - N/A   Overcast
7:56 AM 43.0 °F - 30.0 °F 60% 29.91 in 10.0 mi Calm Calm - N/A   Overcast
8:56 AM 43.0 °F 39.5 °F 32.0 °F 65% 29.94 in 10.0 mi ENE 5.8 mph - N/A   Scattered Clouds
9:56 AM 46.9 °F - 33.1 °F 59% 29.96 in 10.0 mi NNE 4.6 mph - N/A   Overcast
10:56 AM 48.0 °F - 33.1 °F 56% 29.96 in 10.0 mi Calm Calm - N/A   Overcast
11:56 AM 48.0 °F - 35.1 °F 61% 29.97 in 10.0 mi East 3.5 mph - 0.00 in Rain Light Rain
12:56 PM 51.1 °F - 34.0 °F 52% 29.95 in 10.0 mi South 15.0 mph - N/A   Scattered Clouds
1:56 PM 51.1 °F - 33.1 °F 50% 29.94 in 10.0 mi SSW 17.3 mph 24.2 mph N/A   Clear
2:56 PM 51.1 °F - 30.9 °F 46% 29.92 in 10.0 mi SW 15.0 mph 26.5 mph N/A   Partly Cloudy
3:56 PM 48.9 °F - 32.0 °F 52% 29.94 in 10.0 mi SSW 8.1 mph 19.6 mph N/A   Overcast
4:56 PM 50.0 °F - 30.0 °F 46% 29.94 in 10.0 mi Variable 3.5 mph - N/A   Overcast
5:56 PM 50.0 °F - 28.0 °F 43% 29.94 in 10.0 mi SSW 16.1 mph 24.2 mph N/A   Overcast
6:56 PM 48.0 °F - 28.9 °F 48% 29.95 in 10.0 mi WSW 11.5 mph - N/A   Overcast
7:56 PM 48.9 °F - 28.0 °F 44% 29.96 in 10.0 mi SSW 12.7 mph - N/A   Overcast
8:56 PM 48.0 °F - 28.9 °F 48% 29.96 in 10.0 mi South 9.2 mph 23.0 mph N/A   Overcast
9:56 PM 46.0 °F 42.5 °F 28.0 °F 50% 29.97 in 10.0 mi South 6.9 mph - N/A   Scattered Clouds
10:56 PM 44.1 °F 38.1 °F 28.9 °F 55% 29.98 in 10.0 mi SSE 11.5 mph - N/A   Clear
11:56 PM 44.1 °F 39.5 °F 28.0 °F 53% 29.98 in 10.0 mi SE 8.1 mph - N/A   Clear